Location: Unspecified
(0.0000°N, 0.0000°E)
Time: 07:47:21
(UTC+00:00)

Altair - Visible Passes

Search period start: 25 February 2018 00:00
Search period end: 07 March 2018 00:00
Orbit: 1501 x 1682 km, 47.2° (Epoch: 24 February)

Date Brightness Start Highest point End Pass type
(mag) Time Alt. Az. Time Alt. Az. Time Alt. Az.
25 Feb 9.3 02:20:31 19° ESE 02:20:31 19° ESE 02:25:04 10° E visible
25 Feb 7.3 04:18:43 32° SW 04:23:39 81° NW 04:33:01 10° NE visible
26 Feb 9.7 01:58:38 11° E 01:58:38 11° E 01:59:08 10° E visible
26 Feb 7.2 03:56:48 65° SW 03:58:32 89° NW 04:07:52 10° NE visible
27 Feb 7.4 03:34:34 71° ENE 03:34:34 71° ENE 03:42:42 10° NE visible
27 Feb 8.6 05:32:42 11° W 05:38:09 19° NW 05:44:18 10° N visible
28 Feb 8.2 03:12:03 40° NE 03:12:03 40° NE 03:17:30 10° NE visible
28 Feb 8.4 05:10:10 19° WNW 05:12:56 22° NW 05:19:39 10° N visible
01 Mar 9.0 02:49:19 23° NE 02:49:19 23° NE 02:52:16 10° NE visible
01 Mar 8.3 04:47:25 25° NW 04:47:44 25° NW 04:54:55 10° N visible
02 Mar 9.5 02:26:23 12° NE 02:26:23 12° NE 02:27:01 10° NE visible
02 Mar 8.4 04:24:28 26° NNW 04:24:28 26° NNW 04:30:08 10° N visible
03 Mar 8.6 04:01:23 23° N 04:01:23 23° N 04:05:18 10° N visible
04 Mar 9.0 03:38:08 18° N 03:38:08 18° N 03:40:26 10° NNE visible
05 Mar 9.4 03:14:47 13° NNE 03:14:47 13° NNE 03:15:31 10° NNE visible
